Location: Chippewa Lake
(41.0698°N, 81.9010°W)
Time: 22:00:45
(UTC+00:00)

Cosmos 1023 Rocket - Pass Details

Date: 09 May 2021
Orbit: 736 x 773 km, 74.1° (Epoch: 16 June)

Event Time Altitude Azimuth Distance (km) Brightness Sun altitude
Rises 08:57:58 0° 338° (NNW) 3,224 7.9 -13.3°
Reaches altitude 10° 09:00:21 10° 336° (NNW) 2,300 7.1 -13.0°
Maximum altitude 09:05:32 71° 254° (WSW) 813 4.4 -12.2°
Drops below altitude 10° 09:10:45 10° 171° (S) 2,304 6.7 -11.4°
Sets 09:13:07 0° 169° (S) 3,229 7.5 -11.1°
